Home > Weather > Kornwestheim > Past weeks

Flag for Germany Past Weather in Kornwestheim, Baden-Württemberg, Germany — Yesterday and Last 2 Weeks

Now
64 °F

Clear.


Feels Like: 64 °F
Forecast: 53 / 75 °F
Wind: 5 mph from Northwest

Location: Stuttgart-Echterdingen

Current Time: May 28, 2016 at 12:08:08 AM

Latest Report: May 27, 2016 at 11:20 PM


Visibility: 10 mi

Pressure: 29.98 "Hg

Humidity: 73%

Dew Point: 55 °F

Location of KornwestheimLocation

Past Weather in Kornwestheim — Graph

°F

Kornwestheim Temperature Yesterday

Maximum temperature yesterday: 75 °F (at 1:50 PM)
Minimum temperature yesterday: 57 °F (at 1:50 AM)
Average temperature yesterday: 66 °F

High & Low Weather Summary for the Past Weeks

 TemperatureHumidityPressure
High81 °F (May 22, 3:50 PM)100% (May 12, 10:50 PM)30.15 "Hg (May 12, 10:50 PM)
Low41 °F (May 15, 6:50 AM)34% (May 22, 1:50 PM)29.45 "Hg (May 12, 10:20 PM)
Average55 °F75%29.94 "Hg
* Reported May 12 10:20 PM — May 27 10:50 PM, Kornwestheim, Weather by CustomWeather, © 2016

Note: Actual official high and low records may vary slightly from our data, if they occured in-between our weather recording intervals... More about our weather records

Advertising

Kornwestheim Weather History for the Previous 24 Hours

Scroll right to see more
 ConditionsComfort  
Time TempWeatherWind HumidityBarometerVisibility
10:50 PM
Fri, May 27
66 °FClear.3 mph68%29.98 "Hg10 mi
10:20 PM66 °FClear.5 mph68%29.98 "Hg10 mi
9:50 PM68 °FSunny.3 mph64%29.98 "Hg10 mi
9:20 PM68 °FPartly sunny.5 mph69%29.95 "HgN/A
8:50 PM70 °FPartly sunny.6 mph64%29.95 "HgN/A
8:20 PM72 °FPartly sunny.6 mph61%29.95 "HgN/A
7:50 PM72 °FPartly sunny.5 mph61%29.95 "HgN/A
7:20 PM72 °FScattered clouds.7 mph65%29.95 "HgN/A
6:50 PM73 °FScattered clouds.5 mph65%29.95 "HgN/A
6:20 PM73 °FPassing clouds.6 mph65%29.95 "HgN/A
5:50 PM73 °FPassing clouds.5 mph65%29.95 "HgN/A
5:20 PM72 °FPassing clouds.6 mph65%29.95 "HgN/A
4:50 PM72 °FScattered clouds.7 mph61%29.95 "HgN/A
4:20 PM72 °FScattered clouds.6 mph65%29.95 "HgN/A
3:50 PM72 °FScattered clouds.10 mph65%29.95 "HgN/A
3:20 PM70 °FThundershowers. Scattered clouds.14 mph69%29.95 "HgN/A
2:50 PM73 °FThunderstorms. Scattered clouds.3 mph61%29.95 "HgN/A
2:20 PM73 °FScattered clouds.5 mph61%29.95 "HgN/A
1:50 PM75 °FScattered clouds.6 mph57%29.95 "HgN/A
1:20 PM73 °FPartly sunny.3 mph61%29.95 "HgN/A
12:50 PM72 °FPartly sunny.3 mph61%29.98 "HgN/A
12:20 PM72 °FPartly sunny.3 mph65%29.98 "HgN/A
11:50 AM68 °FPartly sunny.3 mph69%29.98 "HgN/A
11:20 AM68 °FPartly sunny.2 mph69%29.98 "HgN/A
10:50 AM66 °FScattered clouds.3 mph73%29.98 "HgN/A
10:20 AM66 °FPassing clouds.3 mph73%29.98 "HgN/A
9:50 AM64 °FSunny.2 mph78%29.98 "Hg10 mi
9:20 AM63 °FSunny.2 mph77%29.98 "Hg10 mi
8:50 AM63 °FSunny.2 mph77%29.98 "Hg10 mi
8:20 AM61 °FSunny.1 mph83%29.98 "Hg10 mi
7:50 AM61 °FPassing clouds.3 mph83%29.98 "HgN/A
7:20 AM59 °FPassing clouds.5 mph88%29.95 "HgN/A
6:50 AM59 °FBroken clouds.6 mph88%29.95 "HgN/A
6:20 AM59 °FPassing clouds.7 mph88%29.95 "HgN/A
5:50 AM57 °FClear.3 mph88%29.92 "Hg10 mi
5:20 AM59 °FClear.3 mph82%29.92 "Hg10 mi
4:50 AM59 °FClear.2 mph88%29.92 "Hg10 mi
4:20 AM61 °FPassing clouds.3 mph83%29.92 "HgN/A
3:50 AM59 °FClear.5 mph82%29.92 "Hg10 mi
3:20 AM59 °FLight rain. Clear.5 mph88%29.92 "HgN/A
2:50 AM59 °FClear.2 mph82%29.92 "Hg10 mi
2:20 AM59 °FClear.3 mph82%29.92 "Hg10 mi
1:50 AM57 °FPassing clouds.5 mph88%29.95 "HgN/A
1:20 AM59 °FClear.3 mph82%29.95 "Hg10 mi
12:50 AM59 °FClear.2 mph82%29.95 "Hg10 mi
12:20 AM59 °FClear.2 mph82%29.95 "Hg10 mi
Weather by CustomWeather, © 2016

See weather overviewHow to use our weather pages